User: anonymous   Login
Location: North Smoke Tower Site
(30.5430°N, 82.3390°W)
Time: 06:13:40
(UTC-04:00)
Language:

Cosmos 1980 Rocket - Orbit

View from above orbital plane
View from above orbital plane
View from above satellite
View from above satellite

Ground track
Ground track

The orbit data is extracted from the following two-line orbital elements,

1 19650U 88102B   16238.67119469 -.00000236  00000-0 -95586-4 0  9993
2 19650  70.9982 276.4788 0016681 272.3967  87.5247 14.15742909434161
Epoch (UTC): 25 August 2016 16:06:31
Eccentricity: 0.0016681
inclination: 70.9982°
perigee height: 828 km
apogee height: 852 km
right ascension of ascending node: 276.4788°
argument of perigee: 272.3967°
revolutions per day: 14.15742909
mean anomaly at epoch: 87.5247°
orbit number at epoch: 43416

The dashed part of the orbit path shows where the satellite is in the earth's shadow,  

DLR